Weather History for LICZ - March, 2014

Change the Weather History Date:

Sunday, March 23, 2014

  Actual Average Record
Temperature  
Mean Temperature 58 °F -  
Max Temperature 72 °F 68 °F 75 °F (2001)
Min Temperature 44 °F 46 °F 33 °F (1998)
Degree Days  
Heating Degree Days 7    
Growing Degree Days 8 (Base 50)    
Moisture  
Dew Point 48 °F    
Average Humidity 77    
Maximum Humidity 100    
Minimum Humidity 26    
Precipitation  
Precipitation 0.00 in 0.05 in - ()
Sea Level Pressure  
Sea Level Pressure 29.97 in    
Wind  
Wind Speed 6 mph ()    
Max Wind Speed 13 mph    
Max Gust Speed -    
Visibility 5.5 miles    
Events Rain    
Averages and records for this station are not official NWS values.
T = Trace of Precipitation, MM = Missing Value Source: Averaged Metar Reports

Daily Weather History Graph

Daily Weather History Graph

Search for Another Location

Airport or City:

Trip Planner

Search our weather history database for the weather conditions in past years. The results will help you decide how hot, cold, wet, or windy it might be!

Date:

Astronomy

Mar. 23, 2014 Rise Set
Actual Time 5:59 AM CET 6:14 PM CET
Civil Twilight 5:33 AM CET 6:40 PM CET
Nautical Twilight 5:03 AM CET 7:11 PM CET
Astronomical Twilight 4:32 AM CET 7:42 PM CET
Moon 12:09 AM CET (3/23) 10:29 AM CET (3/23)
Length of Visible Light 13h 07m
Length of Day
12h 14m
Waning Gibbous, 57% of the Moon is Illuminated
Mar 23
Waning Gibbous
Mar 24
Last Quarter
Mar 30
New
Apr 7
First Quarter
Apr 15
Full

Hourly Weather History & Observations

Time (CET) Temp. Windchill Dew Point Humidity Pressure Visibility Wind Dir Wind Speed Gust Speed Precip Events Conditions
12:55 AM 50.0 °F - 50.0 °F 100% 30.04 in - WNW 8.1 mph - N/A   Clear
1:00 AM 50 °F - 50 °F 100% 30.04 in 6 mi WNW 8.1 mph - -  
1:55 AM 50.0 °F - 50.0 °F 100% 30.04 in - WNW 6.9 mph - N/A   Clear
2:55 AM 50.0 °F - 50.0 °F 100% 30.01 in - NW 8.1 mph - N/A   Clear
3:55 AM 48.2 °F - 48.2 °F 100% 30.01 in - NW 4.6 mph - N/A   Clear
4:00 AM 49 °F - 49 °F 98% 30.02 in 6 mi NW 4.6 mph - -  
4:55 AM 48.2 °F - 48.2 °F 100% 30.01 in 6.2 mi WNW 4.6 mph - N/A   Partly Cloudy
5:55 AM 44.6 °F 42.2 °F 44.6 °F 100% 29.98 in 6.2 mi WNW 4.6 mph - N/A   Scattered Clouds
6:55 AM 48.2 °F - 48.2 °F 100% 29.98 in 6.2 mi WNW 4.6 mph - N/A   Mostly Cloudy
7:00 AM 47 °F - 47 °F 100% 30.00 in 6 mi WNW 4.6 mph - -   Mostly Cloudy
7:55 AM 50.0 °F - 48.2 °F 94% 29.98 in 6.2 mi NW 5.8 mph - N/A   Mostly Cloudy
8:55 AM 57.2 °F - 51.8 °F 82% 30.01 in 4.3 mi WSW 4.6 mph - N/A   Scattered Clouds
9:55 AM 62.6 °F - 37.4 °F 39% 29.98 in 5.0 mi West 10.4 mph - N/A   Scattered Clouds
10:00 AM 63 °F - 37 °F 26% 30.01 in 5 mi West 10.4 mph - -   Mist
10:55 AM 64.4 °F - 39.2 °F 40% 29.98 in 5.0 mi West 12.7 mph - N/A   Scattered Clouds
11:55 AM 64.4 °F - 39.2 °F 40% 29.95 in 5.0 mi WNW 6.9 mph - N/A   Mostly Cloudy
12:55 PM 68.0 °F - 41.0 °F 37% 29.92 in 5.0 mi NW 5.8 mph - N/A   Mostly Cloudy
1:00 PM 68 °F - 41 °F 26% 29.94 in 5 mi NW 5.8 mph - -   Mist
1:55 PM 66.2 °F - 39.2 °F 37% 29.92 in 5.0 mi West 8.1 mph - N/A   Mostly Cloudy
2:55 PM 62.6 °F - 39.2 °F 42% 29.92 in 5.0 mi West 12.7 mph - N/A   Mostly Cloudy
3:55 PM 62.6 °F - 51.8 °F 68% 29.92 in 5.0 mi West 10.4 mph - N/A Rain Light Rain
4:00 PM 62 °F - 51 °F 59% 29.94 in 5 mi West 10.4 mph - - Rain Light Rain
4:55 PM 60.8 °F - 48.2 °F 63% 29.92 in 5.0 mi West 11.5 mph - N/A   Mostly Cloudy
5:55 PM 59.0 °F - 50.0 °F 72% 29.92 in 5.0 mi NW 3.5 mph - N/A   Mostly Cloudy
6:55 PM 57.2 °F - 51.8 °F 82% 29.92 in 5.0 mi West 3.5 mph - N/A   Mostly Cloudy
7:00 PM 57 °F - 52 °F 79% 29.92 in 5 mi West 3.5 mph - -   Mist
7:55 PM 55.4 °F - 55.4 °F 100% 29.95 in 5.0 mi West 8.1 mph - N/A   Mostly Cloudy
8:55 PM 55.4 °F - 55.4 °F 100% 29.95 in 6.2 mi NW 5.8 mph - N/A   Mostly Cloudy
9:55 PM 55.4 °F - 55.4 °F 100% 29.95 in 6.2 mi WNW 5.8 mph - N/A   Mostly Cloudy
10:00 PM 56 °F - 55 °F 94% 29.96 in 6 mi WNW 5.8 mph - -   Scattered Clouds
10:55 PM 55.4 °F - 53.6 °F 94% 29.95 in 6.2 mi NNW 2.3 mph - N/A   Mostly Cloudy
11:55 PM 55.4 °F - 53.6 °F 94% 29.95 in 6.2 mi WNW 6.9 mph - N/A   Mostly Cloudy